Waynesville, MO

3:45 AM CST on February 11, 2016 (GMT -0600)
Waynesville Regional At Forney Field

Weather History for KTBN - August, 2013

Change the Weather History Date:

Sunday, August 11, 2013

  Actual Average (KVIH) Record (KVIH)
Temperature  
Mean Temperature 74 °F 77 °F  
Max Temperature 84 °F 89 °F 102 °F (2007)
Min Temperature 65 °F 66 °F 50 °F (2004)
Degree Days  
Heating Degree Days 0 0  
Month to date heating degree days 0  
Since 1 June heating degree days 15  
Since 1 July heating degree days 1  
Cooling Degree Days 9 12  
Month to date cooling degree days 139  
Year to date cooling degree days 863  
Since 1 June cooling degree days 756  
Growing Degree Days 24 (Base 50)    
Moisture  
Dew Point 67 °F    
Average Humidity 78    
Maximum Humidity 100    
Minimum Humidity 61    
Precipitation  
Precipitation 0.00 in 0.11 in 1.39 in (1952)
Month to date precipitation 1.28  
Year to date precipitation 27.16  
Sea Level Pressure  
Sea Level Pressure 30.10 in    
Wind  
Wind Speed 5 mph (ESE)    
Max Wind Speed 8 mph    
Max Gust Speed -    
Visibility 10 miles    
Events      
T = Trace of Precipitation, MM = Missing Value Source: NWS Daily Summary

Daily Weather History Graph

Daily Weather History Graph

Search for Another Location

Airport or City:

Trip Planner

Search our weather history database for the weather conditions in past years. The results will help you decide how hot, cold, wet, or windy it might be!

Date:

Astronomy

Aug. 11, 2013 Rise Set
Actual Time 6:20 AM CDT 8:05 PM CDT
Civil Twilight 5:52 AM CDT 8:34 PM CDT
Nautical Twilight 5:18 AM CDT 9:08 PM CDT
Astronomical Twilight 4:42 AM CDT 9:44 PM CDT
Moon 11:02 AM CDT 10:28 PM CDT
Length of Visible Light 14h 41m
Length of Day
13h 44m
Waxing Crescent, 22% of the Moon is Illuminated
Aug 11
Waxing Crescent
Aug 14
First Quarter
Aug 20
Full
Aug 28
Last Quarter
Sep 5
New

Hourly Weather History & Observations

Time (CDT) Temp. Heat Index Dew Point Humidity Pressure Visibility Wind Dir Wind Speed Gust Speed Precip Events Conditions
12:58 AM 70.9 °F - 61.9 °F 73% 30.14 in 10.0 mi NE 6.9 mph - N/A   Overcast
1:58 AM 68.7 °F - 61.7 °F 78% 30.13 in 10.0 mi NE 4.6 mph - N/A   Partly Cloudy
2:58 AM 66.9 °F - 61.7 °F 83% 30.12 in 10.0 mi NE 5.8 mph - N/A   Clear
3:58 AM 66.4 °F - 61.5 °F 84% 30.14 in 10.0 mi NE 4.6 mph - N/A   Clear
4:58 AM 65.7 °F - 61.3 °F 86% 30.14 in 10.0 mi NE 3.5 mph - N/A   Clear
5:58 AM 65.1 °F - 61.5 °F 88% 30.14 in 10.0 mi East 4.6 mph - N/A   Clear
6:58 AM 65.5 °F - 61.7 °F 88% 30.13 in 10.0 mi ESE 5.8 mph - N/A   Clear
7:58 AM 68.4 °F - 62.4 °F 81% 30.14 in 10.0 mi SE 5.8 mph - N/A   Clear
8:58 AM 72.0 °F - 63.3 °F 74% 30.14 in 10.0 mi East 4.6 mph - N/A   Clear
9:58 AM 75.6 °F - 65.8 °F 72% 30.14 in 10.0 mi SE 8.1 mph - N/A   Clear
10:58 AM 78.8 °F - 68.0 °F 69% 30.13 in 10.0 mi SE 6.9 mph - N/A   Clear
11:58 AM 81.3 °F 84.0 °F 67.6 °F 63% 30.13 in 10.0 mi ESE 6.9 mph - N/A   Clear
12:58 PM 82.8 °F 85.8 °F 68.0 °F 61% 30.12 in 10.0 mi SE 8.1 mph - N/A   Partly Cloudy
1:58 PM 82.2 °F 85.5 °F 69.1 °F 64% 30.11 in 10.0 mi East 5.8 mph - N/A   Scattered Clouds
2:58 PM 83.3 °F 86.6 °F 68.4 °F 61% 30.09 in 10.0 mi ESE 6.9 mph - N/A   Partly Cloudy
3:58 PM 83.7 °F 87.5 °F 69.3 °F 62% 30.07 in 10.0 mi East 5.8 mph - N/A   Mostly Cloudy
4:58 PM 83.8 °F 87.5 °F 69.3 °F 61% 30.06 in 10.0 mi SE 3.5 mph - N/A   Partly Cloudy
5:58 PM 82.4 °F 86.7 °F 70.7 °F 68% 30.05 in 10.0 mi SSE 3.5 mph - N/A   Partly Cloudy
6:58 PM 80.4 °F 85.3 °F 73.9 °F 81% 30.05 in 10.0 mi SSE 3.5 mph - N/A   Partly Cloudy
7:58 PM 78.6 °F - 73.8 °F 85% 30.05 in 10.0 mi SSE 3.5 mph - N/A   Mostly Cloudy
8:58 PM 76.3 °F - 73.8 °F 92% 30.05 in 10.0 mi South 4.6 mph - N/A   Scattered Clouds
9:58 PM 75.4 °F - 74.5 °F 97% 30.06 in 10.0 mi SE 4.6 mph - N/A   Clear
10:58 PM 73.8 °F - 73.8 °F 100% 30.06 in 10.0 mi SSE 4.6 mph - N/A   Clear
11:58 PM 73.0 °F - 73.0 °F 100% 30.07 in 10.0 mi SSE 2.3 mph - N/A   Mostly Cloudy